N7LK Weather Reports


time (UTC)temp
F
wind
direction
speed
knots
gust
knots
rain 1hr
in
rain 24hr
in
rain mn
in
humidity
%
barometer
mb
20260510105349 75 342 0.0 0.0 0.00 0.00 0.00 23 1007.3
20260510104335 76 342 0.0 0.0 0.00 0.00 0.00 23 1007.2
20260510103326 76 342 0.0 0.0 0.00 0.00 0.00 22 1007.3
20260510102334 76 342 0.0 0.0 0.00 0.00 0.00 21 1007.2
20260510101401 77 342 0.0 0.0 0.00 0.00 0.00 21 1007.3
20260510100328 77 342 0.0 0.0 0.00 0.00 0.00 21 1007.1
20260510095339 77 342 0.0 0.0 0.00 0.00 0.00 20 1006.9
20260510094327 78 342 0.0 0.0 0.00 0.00 0.00 19 1006.9
20260510093334 78 342 0.0 0.0 0.00 0.00 0.00 20 1006.9
20260510092340 78 355 0.0 0.0 0.00 0.00 0.00 21 1006.9
20260510091331 78 355 0.0 0.0 0.00 0.00 0.00 21 1006.8
20260510090339 79 355 0.0 0.0 0.00 0.00 0.00 21 1006.7
20260510085327 80 312 0.0 0.0 0.00 0.00 0.00 21 1006.7
20260510084333 80 264 0.0 0.0 0.00 0.00 0.00 20 1006.7
20260510083344 81 221 0.0 0.0 0.00 0.00 0.00 19 1006.6
20260510082329 82 220 0.0 0.0 0.00 0.00 0.00 17 1006.6
20260510081336 83 302 0.0 0.0 0.00 0.00 0.00 18 1006.5
20260510080343 83 302 0.0 0.0 0.00 0.00 0.00 17 1006.5
20260510075334 85 302 0.0 0.0 0.00 0.00 0.00 16 1006.6
20260510074342 85 302 0.0 0.0 0.00 0.00 0.00 15 1006.6
20260510073329 86 302 0.0 0.0 0.00 0.00 0.00 14 1006.6
20260510072338 87 302 0.0 0.0 0.00 0.00 0.00 13 1006.5
20260510071329 88 302 0.0 0.0 0.00 0.00 0.00 12 1006.5
20260510070337 88 282 0.0 0.0 0.00 0.00 0.00 12 1006.5
20260510065344 89 289 0.0 2.6 0.00 0.00 0.00 12 1006.4
20260510064335 89 272 0.0 5.2 0.00 0.00 0.00 12 1006.4
20260510063343 89 263 0.9 6.1 0.00 0.00 0.00 12 1006.4
20260510062350 90 286 0.0 7.0 0.00 0.00 0.00 12 1006.2
20260510061357 90 261 0.9 8.7 0.00 0.00 0.00 11 1006.1
20260510060344 90 261 0.0 7.0 0.00 0.00 0.00 12 1006.1
20260510055355 90 242 0.9 7.0 0.00 0.00 0.00 12 1006.1
20260510054400 91 267 0.9 6.1 0.00 0.00 0.00 12 1006.0
20260510053326 91 266 0.9 6.1 0.00 0.00 0.00 11 1005.9
20260510052335 92 275 2.6 7.8 0.00 0.00 0.00 11 1005.9
20260510051326 92 292 0.0 6.1 0.00 0.00 0.00 11 1006.0
20260510050334 92 291 0.0 7.8 0.00 0.00 0.00 11 1005.9
20260510045341 92 274 0.0 3.5 0.00 0.00 0.00 11 1005.8
20260510044327 93 276 1.7 5.2 0.00 0.00 0.00 11 1005.7
20260510043339 93 252 2.6 7.0 0.00 0.00 0.00 10 1005.6
20260510042326 94 265 1.7 8.7 0.00 0.00 0.00 11 1005.6
20260510041334 94 240 1.7 7.8 0.00 0.00 0.00 10 1005.4
20260510040401 94 290 0.0 5.2 0.00 0.00 0.00 10 1005.3
20260510035347 94 250 0.9 6.1 0.00 0.00 0.00 10 1005.2
20260510034337 95 233 0.9 7.0 0.00 0.00 0.00 10 1005.0
20260510033344 95 265 0.0 7.0 0.00 0.00 0.00 10 1004.9
20260510032333 96 273 0.9 6.1 0.00 0.00 0.00 9 1004.7
20260510031340 96 254 0.9 5.2 0.00 0.00 0.00 9 1004.6
20260510030333 96 257 1.7 7.8 0.00 0.00 0.00 9 1004.5
20260510025339 97 196 2.6 7.0 0.00 0.00 0.00 9 1004.4
20260510024327 97 259 1.7 7.0 0.00 0.00 0.00 9 1004.3
20260510023335 98 235 0.9 7.0 0.00 0.00 0.00 9 1004.2
20260510022326 98 251 1.7 9.6 0.00 0.00 0.00 8 1004.1
20260510021334 99 263 0.0 9.6 0.00 0.00 0.00 8 1004.1
20260510020341 99 281 3.5 9.6 0.00 0.00 0.00 8 1004.1
20260510015349 100 251 1.7 8.7 0.00 0.00 0.00 8 1004.0
20260510014359 100 237 0.9 11.3 0.00 0.00 0.00 8 1004.0
20260510013326 101 264 6.1 11.3 0.00 0.00 0.00 8 1003.9
20260510012333 101 297 3.5 10.4 0.00 0.00 0.00 8 1004.0
20260510011341 102 278 3.5 9.6 0.00 0.00 0.00 8 1004.0
20260510010333 102 294 1.7 10.4 0.00 0.00 0.00 8 1003.9
20260510005341 102 293 4.3 11.3 0.00 0.00 0.00 8 1004.0
20260510004349 102 275 6.1 10.4 0.00 0.00 0.00 8 1004.0
20260510003353 103 215 0.9 8.7 0.00 0.00 0.00 9 1003.9
20260510002341 103 309 4.3 10.4 0.00 0.00 0.00 9 1004.0
20260510001333 103 327 2.6 14.8 0.00 0.00 0.00 9 1004.0
20260510000403 103 263 3.5 11.3 0.00 0.00 0.00 9 1004.1
20260509235327 103 259 2.6 8.7 0.00 0.00 0.00 9 1004.1
20260509234334 104 327 6.1 12.2 0.00 0.00 0.00 9 1004.3
20260509233341 104 165 1.7 10.4 0.00 0.00 0.00 9 1004.4
20260509232329 104 217 3.5 7.8 0.00 0.00 0.00 9 1004.4
20260509231338 104 256 3.5 7.0 0.00 0.00 0.00 9 1004.5
20260509230329 104 327 3.5 9.6 0.00 0.00 0.00 9 1004.6
20260509225355 104 39 1.7 8.7 0.00 0.00 0.00 9 1004.6
20260509224343 103 5 5.2 9.6 0.00 0.00 0.00 9 1004.7
20260509223331 104 223 1.7 8.7 0.00 0.00 0.00 9 1004.9
20260509222338 104 257 1.7 7.0 0.00 0.00 0.00 9 1005.0
20260509221330 104 266 4.3 11.3 0.00 0.00 0.00 9 1005.2
20260509220336 104 116 3.5 7.8 0.00 0.00 0.00 9 1005.4
20260509215343 103 261 1.7 14.8 0.00 0.00 0.00 8 1005.6
20260509214335 103 269 1.7 8.7 0.00 0.00 0.00 8 1005.7
20260509213344 103 287 4.3 9.6 0.00 0.00 0.00 8 1005.9
20260509212351 103 222 2.6 8.7 0.00 0.00 0.00 9 1006.0
20260509211337 103 173 3.5 8.7 0.00 0.00 0.00 9 1006.2
20260509210405 103 224 4.3 9.6 0.00 0.00 0.00 8 1006.4
20260509205354 102 292 2.6 9.6 0.00 0.00 0.00 10 1006.5
20260509204341 102 179 3.5 7.0 0.00 0.00 0.00 9 1006.7
20260509203330 102 153 1.7 5.2 0.00 0.00 0.00 10 1006.9
20260509202338 101 231 1.7 7.0 0.00 0.00 0.00 11 1006.9
20260509201329 100 312 4.3 8.7 0.00 0.00 0.00 11 1007.2
20260509200336 100 300 3.5 8.7 0.00 0.00 0.00 11 1007.3
20260509195345 100 326 1.7 7.0 0.00 0.00 0.00 11 1007.5
20260509194331 100 255 3.5 7.8 0.00 0.00 0.00 11 1007.6
20260509193343 100 296 0.0 3.5 0.00 0.00 0.00 11 1007.7
20260509192329 99 69 1.7 6.1 0.00 0.00 0.00 12 1007.8
20260509191336 98 20 1.7 3.5 0.00 0.00 0.00 12 1008.1
20260509190326 98 239 1.7 4.3 0.00 0.00 0.00 13 1008.2
20260509185335 98 67 0.9 2.6 0.00 0.00 0.00 12 1008.2
20260509184343 98 250 0.0 2.6 0.00 0.00 0.00 12 1008.4
20260509183329 97 5 0.9 4.3 0.00 0.00 0.00 13 1008.5
20260509182337 97 346 2.6 4.3 0.00 0.00 0.00 13 1008.7
20260509181349 96 340 1.7 3.5 0.00 0.00 0.00 13 1008.8
20260509180335 96 155 1.7 3.5 0.00 0.00 0.00 14 1009.0
20260509175343 96 175 1.7 5.2 0.00 0.00 0.00 14 1009.1
20260509174329 95 101 0.0 2.6 0.00 0.00 0.00 14 1009.1
20260509173400 94 298 0.0 2.6 0.00 0.00 0.00 14 1009.2
20260509172347 93 230 0.0 7.0 0.00 0.00 0.00 15 1009.2
20260509171333 92 173 1.7 4.3 0.00 0.00 0.00 15 1009.2
20260509170339 92 9 0.9 4.3 0.00 0.00 0.00 16 1009.2
20260509165330 91 140 0.9 4.3 0.00 0.00 0.00 18 1009.3
20260509164339 90 59 0.9 5.2 0.00 0.00 0.00 17 1009.3
20260509163326 90 24 1.7 4.3 0.00 0.00 0.00 17 1009.3
20260509162335 90 62 2.6 5.2 0.00 0.00 0.00 17 1009.3
20260509161327 89 101 1.7 4.3 0.00 0.00 0.00 18 1009.3
20260509160335 88 82 1.7 6.1 0.00 0.00 0.00 19 1009.4
20260509155341 87 98 1.7 5.2 0.00 0.00 0.00 19 1009.4
20260509154329 87 46 2.6 6.1 0.00 0.00 0.00 20 1009.3
20260509153340 86 97 1.7 5.2 0.00 0.00 0.00 20 1009.2
20260509152348 85 107 1.7 5.2 0.00 0.00 0.00 20 1009.2
20260509151334 84 88 0.9 5.2 0.00 0.00 0.00 21 1009.1
20260509150342 84 144 2.6 7.0 0.00 0.00 0.00 21 1009.2
20260509145354 83 108 0.0 0.0 0.00 0.00 0.00 23 1009.1
20260509143334 80 94 0.0 0.0 0.00 0.00 0.00 25 1009.1
20260509142326 79 60 0.0 0.0 0.00 0.00 0.00 26 1009.0
20260509141333 78 63 0.0 0.0 0.00 0.00 0.00 26 1009.0
20260509140400 77 82 0.0 0.0 0.00 0.00 0.00 28 1009.0
20260509135405 76 84 0.9 5.2 0.00 0.00 0.00 28 1008.9
20260509134331 75 78 0.0 2.6 0.00 0.00 0.00 29 1008.7
20260509133402 75 76 0.0 0.9 0.00 0.00 0.00 29 1008.6
20260509132406 74 60 0.0 0.9 0.00 0.00 0.00 30 1008.4
20260509131331 73 98 0.0 0.9 0.00 0.00 0.00 30 1008.4
20260509130357 73 70 0.0 0.0 0.00 0.00 0.00 29 1008.2
20260509125343 73 65 0.0 0.0 0.00 0.00 0.00 28 1008.1
20260509124332 74 55 0.0 0.0 0.00 0.00 0.00 29 1007.9
20260509123339 74 55 0.0 0.0 0.00 0.00 0.00 29 1007.8
20260509122326 75 5 0.0 0.0 0.00 0.00 0.00 28 1007.7
20260509121334 75 355 0.0 0.0 0.00 0.00 0.00 27 1007.5
20260509120343 75 286 0.0 0.0 0.00 0.00 0.00 26 1007.4
20260509115331 76 320 0.0 0.0 0.00 0.00 0.00 25 1007.3
20260509114338 76 320 0.0 0.0 0.00 0.00 0.00 25 1007.3
20260509113326 76 320 0.0 0.0 0.00 0.00 0.00 24 1007.3
20260509112337 76 320 0.0 0.0 0.00 0.00 0.00 24 1007.3
20260509111345 77 290 0.0 0.0 0.00 0.00 0.00 24 1007.1
20260509110332 77 281 0.0 0.0 0.00 0.00 0.00 23 1007.1